Regional Weather Roundup
Issued by NWS

Home | Current Version | Previous Version | Text Only | Print | Product List | Glossary Off
Versions: 1 2 3 4 5 6 7 8 9 10 11 12 13 14 15 16 17 18 19 20 21 22 23 24 25 26 27 28 29 30 31 32 33 34 35 36 37 38 39 40 41 42 43 44 45 46 47

000
ASUS45 KBOU 311507
RWRCO

WEATHER ROUNDUP FOR COLORADO
NATIONAL WEATHER SERVICE DENVER/BOULDER CO
800 AM MST SAT JAN 31 2015

NOTE: "FAIR" INDICATES FEW OR NO CLOUDS BELOW 12000 FEET WITH NO
SIGNIFICANT WEATHER AND/OR OBSTRUCTIONS TO VISIBILITY.

COZ001>005-013-030-031-311600-
...NORTHWEST COLORADO...

CITY           SKY/WX    TMP DP  RH WIND       PRES   REMARKS
CRAIG          LGT SNOW  32  30  92 SW10      29.92R FOG     WCI  24
HAYDEN         CLOUDY    30  28  93 W9        29.90R WCI  22
MEEKER         CLOUDY    32  31  96 SW3       29.91R
MOUNT WERNER   NOT AVBL
STEAMBOAT SPGS CLOUDY    31  31  99 CALM      29.89R VSB 1/2
WALDEN         CLOUDY    28  27  93 CALM      29.88S
$$

COZ006>008-011-311600-
...WEST CENTRAL VALLEYS...

CITY           SKY/WX    TMP DP  RH WIND       PRES   REMARKS
GRAND JUNCTION CLOUDY    37  37 100 CALM      29.91R
MONTROSE       LGT RAIN  36  35  96 N5        29.92R
EAGLE          LGT SNOW  34  32  93 CALM      29.91R FOG
RIFLE          LGT SNOW  33  32  96 S3        29.91R FOG
DELTA          RAIN      39  39  99 CALM      29.90S
NUCLA          LGT SNOW  32  32 100 CALM      29.94S VSB 3/4
$$

COZ017>023-064>068-311600-
...SOUTHWEST COLORADO...

CITY           SKY/WX    TMP DP  RH WIND       PRES   REMARKS
DURANGO        CLOUDY    32  31  96 NE3       29.89S
CORTEZ         CLOUDY    33  33 100 NW3       29.91R
PAGOSA SPRINGS CLOUDY    33  33 100 CALM      29.90S FOG
TELLURIDE      LGT SNOW  30  30 100 CALM      29.91S
WOLF CREEK PAS FOG       19  19 100 SW9       29.95S VSB 1/2 WCI   9
$$

COZ009-010-012-014-032>034-037-058>063-311600-
...CENTRAL COLORADO...

CITY           SKY/WX    TMP DP  RH WIND       PRES   REMARKS
ASPEN          LGT SNOW  31  29  92 NW3       29.87R FOG
BUENA VISTA    CLOUDY    30  28  95 CALM      29.89F FOG
COPPER MTN     CLOUDY    28  23  80 W10       29.92S HAZE    WCI  19
BERTHOUD PASS  HAZE      19  14  79 NW15G21   29.93R VSB<1/4 WCI   5
COTTONWOOD PAS FOG       30  27  86 CALM      29.90F VSB 1/2
GUNNISON       CLOUDY    30  27  86 S3        29.90R
KREMMLING      LGT SNOW  30  28  93 CALM      29.91R
LEADVILLE      CLOUDY    23  22  96 CALM      29.89R
MONARCH PASS   LGT SNOW  23  21  93 MISG      30.01F VSB 3/4
SALIDA         CLOUDY    32  32  99 CALM      29.97F
SUNLIGHT       SNOW      28  28 100 CALM        N/A  VSB 1/4
WILKERSON PASS FOG      N/A N/A N/A SW8       29.92F VSB 1/2
$$

COZ069>075-311600-
...SAN LUIS VALLEY/SANGRE DE CRISTO MOUNTAINS...

CITY           SKY/WX    TMP DP  RH WIND       PRES   REMARKS
ALAMOSA        CLOUDY    29  28  96 CALM      29.90R FOG
LA VETA PASS   CLOUDY    27  25  93 S9G17     29.90R FOG     WCI  17
SAGUACHE       CLOUDY    30  28  93 CALM      29.91R
$$

COZ035-036-038>040-311600-
...NORTHERN COLORADO FRONT RANGE...

CITY           SKY/WX    TMP DP  RH WIND       PRES   REMARKS
DENVER INTL AP MOCLDY    31  26  82 SW5       29.91R WCI  26
DMNS CITY PARK   N/A     34  25  69 CALM      29.92R
AURORA         MOCLDY    28  26  89 SW3       29.92R
FRONT RANGE AP MOCLDY    32  27  80 SW5       29.91  WCI  27
ERIE MUNI ARPT CLOUDY    33  30  88 CALM      29.92R
BOULDER MUN AP MOCLDY    34  27  75 NE3       29.91R
CENTENNIAL     MOCLDY    31  24  75 NW3       29.90R
BROOMFIELD     MOCLDY    36  27  69 CALM      29.92R
FORT COLLINS   CLOUDY    34  25  69 CALM      29.92R
LONGMONT       CLOUDY    35  29  79 CALM      29.94R
$$

COZ041-046-047-076>085-087-088-311600-
...PIKES PEAK/PALMER DIVIDE AND SOUTHERN FOOTHILLS...

CITY           SKY/WX    TMP DP  RH WIND       PRES   REMARKS
COLO. SPRINGS  MOCLDY    34  28  79 NE6       29.88F WCI  29
A. F. ACADEMY  MOCLDY    32  26  77 N6        29.87S WCI  26
ELLICOTT       CLOUDY   N/A N/A N/A N8        29.87F
FALCON         MOCLDY    32  23  69 N3        29.89F
FORT CARSON    CLOUDY    36  30  79 N3        29.86F
LIMON          MOCLDY    27  25  92 NW7       29.90R WCI  19
MONUMENT HILL  CLOUDY    30  27  86 CALM      29.89R
TRINIDAD       CLOUDY    35  29  78 W8        29.90S WCI  29
$$

COZ042>045-048>051-090-091-311600-
...NORTHEAST COLORADO...

CITY           SKY/WX    TMP DP  RH WIND       PRES   REMARKS
GREELEY ARPT   CLOUDY    34  23  64 W3        29.90R
AKRON          FOG       31  31 100 CALM      29.90R VSB 1/4
BURLINGTON     FOG       33  31  92 N9        29.89S VSB 1/2 WCI  25
WRAY           FOG      N/A N/A N/A N7        29.90F VSB 1/4
STERLING       CLOUDY    32  32 100 NE6       29.91S WCI  26
HOLYOKE        NOT AVBL
FORT MORGAN    MOCLDY    31  28  90 CALM      29.92R
$$

COZ086-089-092>099-311600-
...SOUTHEAST COLORADO...

CITY           SKY/WX    TMP DP  RH WIND       PRES   REMARKS
PUEBLO         FOG       34  34 100 CALM      29.89R VSB 1/4
LA JUNTA       CLOUDY    37  36  96 SW5       29.89S
LAMAR          CLOUDY    37  36  96 MISG      29.89R
SPRINGFIELD      N/A     33  32  96 S17       29.89S WCI  22
$$



USA.gov is the U.S. government's official web portal to all federal, state and local government web resources and services.